Tracking 29932 objects as of 4-Dec-2024
HD Live streaming from Space Station
objects crossing your sky now

STARLINK-30811

Track STARLINK-30811 now!
10-day predictions
STARLINK-30811 is classified as:


NORAD ID: 58167
Int'l Code: 2023-166T
Perigee: 481.4 km
Apogee: 483.5 km
Inclination: 53.2 °
Period: 94.1 minutes
Semi major axis: 6853 km
RCS: Unknown
Launch date: October 29, 2023
Source: United States (US)
Launch site: AIR FORCE WESTERN TEST RANGE (AFWTR)
Your satellite tracking list
Your tracking list is empty




NASA's NSSDC Master Catalog

Two Line Element Set (TLE):
1 58167U 23166T   24338.83749136  .00005574  00000-0  20032-3 0  9997
2 58167  53.1607 200.0238 0001553  75.7213 284.3960 15.30179499 62463
Source of the keplerian elements: AFSPC